Hourly Data Report for September 04, 2017

All times are specified in Local Standard Time (LST). Add 1 hour to adjust for Daylight Saving Time where and when it is observed.

NORTH CAPE
PRINCE EDWARD ISLAND

47°03'29.000" N
63°59'55.000" W
7.60 m
8300516
71987
WNE

Download Data

Hourly Data (September 2017)
Hourly Data Report for September 4, 2017
Temp Definition
°C
Dew Point Temp Definition
°C
Rel Hum Definition
%
Wind Dir Definition
10's deg

Wind Spd Definition
km/h
Visibility Definition
km
Stn Press Definition
kPa
Hmdx Definition


Wind Chill Definition


Weather Definition


TIME
00:00 15.1 11.2 78 15 31   101.16     LegendNANA
01:00 14.9 11.6 81 14 32   101.03     LegendNANA
02:00 14.0 12.4 90 14 34   100.82     LegendNANA
03:00 14.1 12.9 93 12 38   100.59     LegendNANA
04:00 14.2 13.1 93 12 38   100.35     LegendNANA
05:00 14.6 13.2 92 14 46   100.13     LegendNANA
06:00 14.7 13.4 92 14 37   99.99     LegendNANA
07:00 15.0 13.8 93 16 20   99.88     LegendNANA
08:00 15.9 14.7 93 18 12   99.84     LegendNANA
09:00 16.5 13.3 81 21 35   99.80     LegendNANA
10:00 15.3 12.5 83 21 22   99.79     LegendNANA
11:00 16.0 13.0 82 22 27   99.76     LegendNANA
12:00 15.5 13.1 86 23 42   99.77     LegendNANA
13:00 15.9 13.8 87 24 43   99.84     LegendNANA
14:00 16.7 13.9 84 25 45   99.94     LegendNANA
15:00 17.2 13.8 80 26 40   100.02     LegendNANA
16:00 17.5 13.5 78 26 37   100.10     LegendNANA
17:00 17.4 13.9 80 26 29   100.20     LegendNANA
18:00 17.4 13.3 77 25 35   100.26     LegendNANA
19:00 16.9 13.1 78 25 35   100.39     LegendNANA
20:00 16.8 13.2 79 24 30   100.50     LegendNANA
21:00 16.0 12.8 81 22 18   100.53     LegendNANA
22:00 16.7 12.9 78 22 19   100.52     LegendNANA
23:00 16.6 12.0 75 21 26   100.55     LegendNANA

Notes on Data Quality.

Legend

  • E = Estimated
  • M = Missing
  • NA = Not Available
  • ‡ = Partner data that is not subject to review by the National Climate Archives
Date modified: